contact:dominique.lefevre@mio.osupytheas.fr, maurice.libes@osupytheas.fr, didier.mallarino@osupytheas.fr
Project:EMSO http://www.emso-fr.org/EMSO-France
Depth: 2436.0 m
Title:EMSO Ligure Ouest : Data MII capteur MICROCAT
DateTime_Computer,Latitude,Longitude,Temperature,Conductivity,Pressure,DateTime_Instrument
DateTime_Computer,Latitude,Longitude,degC,S m-1,dbar,DateTime_Instrument
2022-04-02T00:01:15Z,42.805,6.029,13.3034,4.60097,2469.993,2022-4-02T02:02:52Z
2022-04-02T00:04:18Z,42.805,6.029,13.3026,4.60094,2469.947,2022-4-02T02:05:56Z
2022-04-02T00:07:21Z,42.805,6.029,13.3025,4.60069,2470.007,2022-4-02T02:08:59Z
2022-04-02T00:10:24Z,42.805,6.029,13.3033,4.60077,2470.007,2022-4-02T02:12:02Z
2022-04-02T00:13:28Z,42.805,6.029,13.3039,4.60089,2469.947,2022-4-02T02:15:05Z
2022-04-02T00:16:31Z,42.805,6.029,13.3036,4.60086,2469.97,2022-4-02T02:18:08Z
2022-04-02T00:19:34Z,42.805,6.029,13.3037,4.60092,2469.97,2022-4-02T02:21:11Z
2022-04-02T00:22:37Z,42.805,6.029,13.3035,4.60097,2469.97,2022-4-02T02:24:14Z
2022-04-02T00:25:40Z,42.805,6.029,13.3036,4.60089,2469.956,2022-4-02T02:27:17Z
2022-04-02T00:28:43Z,42.805,6.029,13.3031,4.60095,2469.923,2022-4-02T02:30:20Z
2022-04-02T00:31:46Z,42.805,6.029,13.3031,4.60088,2469.947,2022-4-02T02:33:24Z
2022-04-02T00:34:49Z,42.805,6.029,13.3031,4.60084,2469.947,2022-4-02T02:36:27Z
2022-04-02T00:37:52Z,42.805,6.029,13.3034,4.60093,2469.96,2022-4-02T02:39:30Z
2022-04-02T00:40:56Z,42.805,6.029,13.3026,4.60081,2469.96,2022-4-02T02:42:33Z
2022-04-02T00:43:59Z,42.805,6.029,13.3029,4.60085,2469.937,2022-4-02T02:45:36Z
2022-04-02T00:47:02Z,42.805,6.029,13.3025,4.60074,2469.96,2022-4-02T02:48:39Z
2022-04-02T00:50:05Z,42.805,6.029,13.3034,4.60087,2469.96,2022-4-02T02:51:42Z
2022-04-02T00:53:08Z,42.805,6.029,13.3025,4.60079,2469.923,2022-4-02T02:54:45Z
2022-04-02T00:56:11Z,42.805,6.029,13.3031,4.60081,2469.923,2022-4-02T02:57:49Z
2022-04-02T00:59:14Z,42.805,6.029,13.3028,4.60089,2469.96,2022-4-02T03:00:52Z
2022-04-02T01:02:17Z,42.805,6.029,13.3032,4.60094,2469.947,2022-4-02T03:03:55Z
2022-04-02T01:05:21Z,42.805,6.029,13.3027,4.60079,2469.97,2022-4-02T03:06:58Z
2022-04-02T01:08:24Z,42.805,6.029,13.3035,4.60082,2469.97,2022-4-02T03:10:01Z
2022-04-02T01:11:27Z,42.805,6.029,13.3025,4.60090,2469.923,2022-4-02T03:13:04Z
2022-04-02T01:14:30Z,42.805,6.029,13.3028,4.60079,2469.923,2022-4-02T03:16:07Z
2022-04-02T01:17:33Z,42.805,6.029,13.3044,4.60095,2469.97,2022-4-02T03:19:10Z
2022-04-02T01:20:36Z,42.805,6.029,13.3029,4.60091,2469.923,2022-4-02T03:22:13Z
2022-04-02T01:23:39Z,42.805,6.029,13.3032,4.60094,2469.923,2022-4-02T03:25:17Z
2022-04-02T01:26:42Z,42.805,6.029,13.3037,4.60096,2469.96,2022-4-02T03:28:20Z
2022-04-02T01:29:45Z,42.805,6.029,13.3026,4.60092,2469.947,2022-4-02T03:31:23Z
2022-04-02T01:32:49Z,42.805,6.029,13.3029,4.60074,2469.96,2022-4-02T03:34:26Z
2022-04-02T01:35:52Z,42.805,6.029,13.3026,4.60089,2469.96,2022-4-02T03:37:29Z
2022-04-02T01:38:55Z,42.805,6.029,13.3031,4.60082,2469.9,2022-4-02T03:40:32Z
2022-04-02T01:41:58Z,42.805,6.029,13.3030,4.60096,2469.914,2022-4-02T03:43:35Z
2022-04-02T01:45:01Z,42.805,6.029,13.3024,4.60088,2469.947,2022-4-02T03:46:38Z
2022-04-02T01:48:04Z,42.805,6.029,13.3026,4.60097,2469.937,2022-4-02T03:49:42Z
2022-04-02T01:51:07Z,42.805,6.029,13.3026,4.60094,2469.914,2022-4-02T03:52:45Z
2022-04-02T01:54:10Z,42.805,6.029,13.3038,4.60072,2469.937,2022-4-02T03:55:48Z
2022-04-02T01:57:14Z,42.805,6.029,13.3019,4.60079,2469.937,2022-4-02T03:58:51Z
2022-04-02T02:00:17Z,42.805,6.029,13.3022,4.60079,2469.9,2022-4-02T04:01:54Z
2022-04-02T02:03:20Z,42.805,6.029,13.3029,4.60092,2469.937,2022-4-02T04:04:57Z
2022-04-02T02:06:23Z,42.805,6.029,13.3031,4.60076,2469.923,2022-4-02T04:08:00Z
2022-04-02T02:09:26Z,42.805,6.029,13.3024,4.60079,2469.876,2022-4-02T04:11:03Z
2022-04-02T02:12:29Z,42.805,6.029,13.3029,4.60093,2469.914,2022-4-02T04:14:06Z
2022-04-02T02:15:32Z,42.805,6.029,13.3031,4.60088,2469.9,2022-4-02T04:17:10Z
2022-04-02T02:18:35Z,42.805,6.029,13.3029,4.60086,2469.923,2022-4-02T04:20:13Z
2022-04-02T02:21:38Z,42.805,6.029,13.3024,4.60095,2469.914,2022-4-02T04:23:16Z
2022-04-02T02:24:42Z,42.805,6.029,13.3030,4.60079,2469.9,2022-4-02T04:26:19Z
2022-04-02T02:27:45Z,42.805,6.029,13.3024,4.60088,2469.937,2022-4-02T04:29:22Z
2022-04-02T02:30:48Z,42.805,6.029,13.3024,4.60073,2469.923,2022-4-02T04:32:25Z
2022-04-02T02:33:51Z,42.805,6.029,13.3029,4.60087,2469.914,2022-4-02T04:35:28Z
2022-04-02T02:36:54Z,42.805,6.029,13.3027,4.60090,2469.947,2022-4-02T04:38:31Z
2022-04-02T02:39:57Z,42.805,6.029,13.3019,4.60076,2469.9,2022-4-02T04:41:34Z
2022-04-02T02:43:00Z,42.805,6.029,13.3017,4.60067,2469.923,2022-4-02T04:44:38Z
2022-04-02T02:46:03Z,42.805,6.029,13.3019,4.60064,2469.914,2022-4-02T04:47:41Z
2022-04-02T02:49:07Z,42.805,6.029,13.3026,4.60066,2469.923,2022-4-02T04:50:44Z
2022-04-02T02:52:10Z,42.805,6.029,13.3023,4.60081,2469.9,2022-4-02T04:53:47Z
2022-04-02T02:55:13Z,42.805,6.029,13.3022,4.60084,2469.9,2022-4-02T04:56:50Z
2022-04-02T02:58:16Z,42.805,6.029,13.3034,4.60084,2469.96,2022-4-02T04:59:53Z
2022-04-02T03:01:19Z,42.805,6.029,13.3031,4.60081,2469.923,2022-4-02T05:02:56Z
2022-04-02T03:04:22Z,42.805,6.029,13.3029,4.60086,2469.876,2022-4-02T05:05:59Z
2022-04-02T03:07:25Z,42.805,6.029,13.3026,4.60083,2469.914,2022-4-02T05:09:03Z
2022-04-02T03:10:28Z,42.805,6.029,13.3022,4.60064,2469.923,2022-4-02T05:12:06Z
2022-04-02T03:13:31Z,42.805,6.029,13.3026,4.60087,2469.923,2022-4-02T05:15:09Z
2022-04-02T03:16:35Z,42.805,6.029,13.3045,4.60101,2469.9,2022-4-02T05:18:12Z
2022-04-02T03:19:38Z,42.805,6.029,13.3029,4.60086,2469.937,2022-4-02T05:21:15Z
2022-04-02T03:22:41Z,42.805,6.029,13.3037,4.60090,2469.937,2022-4-02T05:24:18Z
2022-04-02T03:25:44Z,42.805,6.029,13.3035,4.60098,2469.923,2022-4-02T05:27:21Z
2022-04-02T03:28:47Z,42.805,6.029,13.3024,4.60072,2469.96,2022-4-02T05:30:24Z
2022-04-02T03:31:50Z,42.805,6.029,13.3034,4.60085,2469.914,2022-4-02T05:33:27Z
2022-04-02T03:34:53Z,42.805,6.029,13.3026,4.60087,2469.923,2022-4-02T05:36:31Z
2022-04-02T03:37:56Z,42.805,6.029,13.3031,4.60094,2469.947,2022-4-02T05:39:34Z
2022-04-02T03:40:59Z,42.805,6.029,13.3029,4.60082,2469.947,2022-4-02T05:42:37Z
2022-04-02T03:44:03Z,42.805,6.029,13.3036,4.60094,2469.923,2022-4-02T05:45:40Z
2022-04-02T03:47:06Z,42.805,6.029,13.3024,4.60097,2469.947,2022-4-02T05:48:43Z
2022-04-02T03:50:09Z,42.805,6.029,13.3021,4.60085,2469.947,2022-4-02T05:51:46Z
2022-04-02T03:53:12Z,42.805,6.029,13.3031,4.60092,2469.923,2022-4-02T05:54:49Z
2022-04-02T03:56:15Z,42.805,6.029,13.3026,4.60077,2469.923,2022-4-02T05:57:52Z
2022-04-02T03:59:18Z,42.805,6.029,13.3020,4.60073,2469.993,2022-4-02T06:00:56Z
2022-04-02T04:02:21Z,42.805,6.029,13.3029,4.60096,2469.9,2022-4-02T06:03:59Z
2022-04-02T04:05:24Z,42.805,6.029,13.3028,4.60104,2469.97,2022-4-02T06:07:02Z
2022-04-02T04:08:28Z,42.805,6.029,13.3026,4.60099,2469.937,2022-4-02T06:10:05Z
2022-04-02T04:11:31Z,42.805,6.029,13.3024,4.60072,2469.933,2022-4-02T06:13:08Z
2022-04-02T04:14:34Z,42.805,6.029,13.3032,4.60096,2469.984,2022-4-02T06:16:11Z
2022-04-02T04:17:37Z,42.805,6.029,13.3032,4.60099,2469.97,2022-4-02T06:19:14Z
2022-04-02T04:20:40Z,42.805,6.029,13.3029,4.60072,2469.947,2022-4-02T06:22:17Z
2022-04-02T04:23:43Z,42.805,6.029,13.3026,4.60097,2469.97,2022-4-02T06:25:20Z
2022-04-02T04:26:46Z,42.805,6.029,13.3025,4.60091,2469.96,2022-4-02T06:28:24Z
2022-04-02T04:29:49Z,42.805,6.029,13.3047,4.60090,2469.97,2022-4-02T06:31:27Z
2022-04-02T04:32:52Z,42.805,6.029,13.3029,4.60092,2469.984,2022-4-02T06:34:30Z
2022-04-02T04:35:56Z,42.805,6.029,13.3041,4.60099,2469.993,2022-4-02T06:37:33Z
2022-04-02T04:38:59Z,42.805,6.029,13.3036,4.60100,2469.97,2022-4-02T06:40:36Z
2022-04-02T04:42:02Z,42.805,6.029,13.3020,4.60071,2469.97,2022-4-02T06:43:39Z
2022-04-02T04:45:05Z,42.805,6.029,13.3035,4.60099,2469.993,2022-4-02T06:46:42Z
2022-04-02T04:48:08Z,42.805,6.029,13.3024,4.60087,2470.03,2022-4-02T06:49:45Z
2022-04-02T04:51:11Z,42.805,6.029,13.3029,4.60095,2469.97,2022-4-02T06:52:49Z
2022-04-02T04:54:14Z,42.805,6.029,13.3023,4.60074,2469.97,2022-4-02T06:55:52Z
2022-04-02T04:57:17Z,42.805,6.029,13.3023,4.60089,2469.97,2022-4-02T06:58:55Z
2022-04-02T05:00:21Z,42.805,6.029,13.3039,4.60082,2470.017,2022-4-02T07:01:58Z
2022-04-02T05:03:24Z,42.805,6.029,13.3026,4.60102,2469.984,2022-4-02T07:05:01Z
2022-04-02T05:06:27Z,42.805,6.029,13.3039,4.60088,2470.03,2022-4-02T07:08:04Z
2022-04-02T05:09:30Z,42.805,6.029,13.3031,4.60088,2470.04,2022-4-02T07:11:07Z
2022-04-02T05:12:33Z,42.805,6.029,13.3017,4.60069,2470.053,2022-4-02T07:14:10Z
2022-04-02T05:15:36Z,42.805,6.029,13.3026,4.60093,2469.984,2022-4-02T07:17:13Z
2022-04-02T05:18:39Z,42.805,6.029,13.3020,4.60098,2470.03,2022-4-02T07:20:17Z
2022-04-02T05:21:42Z,42.805,6.029,13.3019,4.60088,2470.04,2022-4-02T07:23:20Z
2022-04-02T05:24:45Z,42.805,6.029,13.3021,4.60074,2470.04,2022-4-02T07:26:23Z
2022-04-02T05:27:49Z,42.805,6.029,13.3039,4.60088,2470.053,2022-4-02T07:29:26Z
2022-04-02T05:30:52Z,42.805,6.029,13.3024,4.60081,2470.04,2022-4-02T07:32:29Z
2022-04-02T05:33:55Z,42.805,6.029,13.3035,4.60090,2470.04,2022-4-02T07:35:32Z
2022-04-02T05:36:58Z,42.805,6.029,13.3021,4.60072,2470.03,2022-4-02T07:38:35Z
2022-04-02T05:40:01Z,42.805,6.029,13.3021,4.60074,2470.087,2022-4-02T07:41:38Z
2022-04-02T05:43:04Z,42.805,6.029,13.3029,4.60081,2470.04,2022-4-02T07:44:42Z
2022-04-02T05:46:07Z,42.805,6.029,13.3021,4.60085,2470.053,2022-4-02T07:47:45Z
2022-04-02T05:49:10Z,42.805,6.029,13.3031,4.60089,2470.017,2022-4-02T07:50:48Z
2022-04-02T05:52:14Z,42.805,6.029,13.3026,4.60087,2470.03,2022-4-02T07:53:51Z
2022-04-02T05:55:17Z,42.805,6.029,13.3039,4.60104,2470.063,2022-4-02T07:56:54Z
2022-04-02T05:58:20Z,42.805,6.029,13.3029,4.60072,2470.063,2022-4-02T07:59:57Z
2022-04-02T06:01:23Z,42.805,6.029,13.3035,4.60083,2470.04,2022-4-02T08:03:00Z
2022-04-02T06:04:26Z,42.805,6.029,13.3043,4.60107,2470.1,2022-4-02T08:06:03Z
2022-04-02T06:07:29Z,42.805,6.029,13.3029,4.60102,2470.063,2022-4-02T08:09:06Z
2022-04-02T06:10:32Z,42.805,6.029,13.3039,4.60095,2470.053,2022-4-02T08:12:10Z
2022-04-02T06:13:35Z,42.805,6.029,13.3038,4.60099,2470.04,2022-4-02T08:15:13Z
2022-04-02T06:16:38Z,42.805,6.029,13.3029,4.60110,2470.1,2022-4-02T08:18:16Z
2022-04-02T06:19:42Z,42.805,6.029,13.3016,4.60074,2470.063,2022-4-02T08:21:19Z
2022-04-02T06:22:45Z,42.805,6.029,13.3046,4.60070,2470.063,2022-4-02T08:24:22Z
2022-04-02T06:25:48Z,42.805,6.029,13.3036,4.60083,2470.087,2022-4-02T08:27:25Z
2022-04-02T06:28:51Z,42.805,6.029,13.3032,4.60087,2470.124,2022-4-02T08:30:28Z
2022-04-02T06:31:54Z,42.805,6.029,13.3034,4.60108,2470.124,2022-4-02T08:33:31Z
2022-04-02T06:34:57Z,42.805,6.029,13.3029,4.60087,2470.087,2022-4-02T08:36:35Z
2022-04-02T06:38:00Z,42.805,6.029,13.3035,4.60074,2470.11,2022-4-02T08:39:38Z
2022-04-02T06:41:03Z,42.805,6.029,13.3039,4.60082,2470.147,2022-4-02T08:42:41Z
2022-04-02T06:44:06Z,42.805,6.029,13.3029,4.60072,2470.096,2022-4-02T08:45:44Z
2022-04-02T06:47:10Z,42.805,6.029,13.3041,4.60101,2470.124,2022-4-02T08:48:47Z
2022-04-02T06:50:13Z,42.805,6.029,13.3027,4.60084,2470.1,2022-4-02T08:51:50Z
2022-04-02T06:53:16Z,42.805,6.029,13.3037,4.60066,2470.087,2022-4-02T08:54:53Z
2022-04-02T06:56:19Z,42.805,6.029,13.3024,4.60076,2470.124,2022-4-02T08:57:56Z
2022-04-02T06:59:22Z,42.805,6.029,13.3036,4.60109,2470.11,2022-4-02T09:00:59Z
2022-04-02T07:02:25Z,42.805,6.029,13.3030,4.60119,2470.11,2022-4-02T09:04:03Z
2022-04-02T07:05:28Z,42.805,6.029,13.3029,4.60114,2470.147,2022-4-02T09:07:06Z
2022-04-02T07:08:31Z,42.805,6.029,13.3055,4.60111,2470.124,2022-4-02T09:10:09Z
2022-04-02T07:11:34Z,42.805,6.029,13.3034,4.60092,2470.087,2022-4-02T09:13:12Z
2022-04-02T07:14:38Z,42.805,6.029,13.3032,4.60087,2470.147,2022-4-02T09:16:15Z
2022-04-02T07:17:41Z,42.805,6.029,13.3034,4.60105,2470.124,2022-4-02T09:19:18Z
2022-04-02T07:20:44Z,42.805,6.029,13.3021,4.60093,2470.11,2022-4-02T09:22:21Z
2022-04-02T07:23:47Z,42.805,6.029,13.3041,4.60102,2470.171,2022-4-02T09:25:24Z
2022-04-02T07:26:50Z,42.805,6.029,13.3038,4.60091,2470.124,2022-4-02T09:28:27Z
2022-04-02T07:29:53Z,42.805,6.029,13.3047,4.60079,2470.133,2022-4-02T09:31:31Z
2022-04-02T07:32:56Z,42.805,6.029,13.3039,4.60083,2470.171,2022-4-02T09:34:34Z
2022-04-02T07:35:59Z,42.805,6.029,13.3036,4.60099,2470.171,2022-4-02T09:37:37Z
2022-04-02T07:39:03Z,42.805,6.029,13.3036,4.60102,2470.147,2022-4-02T09:40:40Z
2022-04-02T07:42:06Z,42.805,6.029,13.3039,4.60072,2470.11,2022-4-02T09:43:43Z
2022-04-02T07:45:09Z,42.805,6.029,13.3021,4.60093,2470.147,2022-4-02T09:46:46Z
2022-04-02T07:48:12Z,42.805,6.029,13.3038,4.60062,2470.087,2022-4-02T09:49:49Z
2022-04-02T07:51:15Z,42.805,6.029,13.3030,4.60080,2470.133,2022-4-02T09:52:52Z
2022-04-02T07:54:18Z,42.805,6.029,13.3026,4.60107,2470.156,2022-4-02T09:55:55Z
2022-04-02T07:57:21Z,42.805,6.029,13.3045,4.60107,2470.133,2022-4-02T09:58:59Z
2022-04-02T08:00:24Z,42.805,6.029,13.3027,4.60107,2470.147,2022-4-02T10:02:02Z
2022-04-02T08:03:27Z,42.805,6.029,13.3037,4.60114,2470.147,2022-4-02T10:05:05Z
2022-04-02T08:06:31Z,42.805,6.029,13.3043,4.60095,2470.147,2022-4-02T10:08:08Z
2022-04-02T08:09:34Z,42.805,6.029,13.3034,4.60089,2470.194,2022-4-02T10:11:11Z
2022-04-02T08:12:37Z,42.805,6.029,13.3026,4.60102,2470.087,2022-4-02T10:14:14Z
2022-04-02T08:15:40Z,42.805,6.029,13.3019,4.60098,2470.171,2022-4-02T10:17:17Z
2022-04-02T08:18:43Z,42.805,6.029,13.3036,4.60110,2470.124,2022-4-02T10:20:20Z
2022-04-02T08:21:46Z,42.805,6.029,13.3022,4.60069,2470.147,2022-4-02T10:23:24Z
2022-04-02T08:24:49Z,42.805,6.029,13.3023,4.60062,2470.11,2022-4-02T10:26:27Z
2022-04-02T08:27:52Z,42.805,6.029,13.3059,4.60102,2470.133,2022-4-02T10:29:30Z
2022-04-02T08:30:56Z,42.805,6.029,13.3040,4.60097,2470.1,2022-4-02T10:32:33Z
2022-04-02T08:33:59Z,42.805,6.029,13.3019,4.60091,2470.11,2022-4-02T10:35:36Z
2022-04-02T08:37:02Z,42.805,6.029,13.3024,4.60089,2470.087,2022-4-02T10:38:39Z
2022-04-02T08:40:05Z,42.805,6.029,13.3036,4.60098,2470.147,2022-4-02T10:41:42Z
2022-04-02T08:43:08Z,42.805,6.029,13.3024,4.60080,2470.124,2022-4-02T10:44:45Z
2022-04-02T08:46:11Z,42.805,6.029,13.3019,4.60084,2470.124,2022-4-02T10:47:49Z
2022-04-02T08:49:14Z,42.805,6.029,13.3014,4.60072,2470.11,2022-4-02T10:50:52Z
2022-04-02T08:52:17Z,42.805,6.029,13.3025,4.60080,2470.147,2022-4-02T10:53:55Z
2022-04-02T08:55:21Z,42.805,6.029,13.3033,4.60088,2470.124,2022-4-02T10:56:58Z
2022-04-02T08:58:24Z,42.805,6.029,13.3029,4.60092,2470.087,2022-4-02T11:00:01Z
2022-04-02T09:01:27Z,42.805,6.029,13.3021,4.60078,2470.147,2022-4-02T11:03:04Z
2022-04-02T09:04:30Z,42.805,6.029,13.3019,4.60092,2470.147,2022-4-02T11:06:07Z
2022-04-02T09:07:33Z,42.805,6.029,13.3031,4.60094,2470.124,2022-4-02T11:09:10Z
2022-04-02T09:10:36Z,42.805,6.029,13.3034,4.60099,2470.124,2022-4-02T11:12:13Z
2022-04-02T09:13:39Z,42.805,6.029,13.3042,4.60087,2470.1,2022-4-02T11:15:17Z
2022-04-02T09:16:42Z,42.805,6.029,13.3021,4.60093,2470.11,2022-4-02T11:18:20Z
2022-04-02T09:19:46Z,42.805,6.029,13.3035,4.60079,2470.087,2022-4-02T11:21:23Z
2022-04-02T09:22:49Z,42.805,6.029,13.3043,4.60106,2470.124,2022-4-02T11:24:26Z
2022-04-02T09:25:52Z,42.805,6.029,13.3031,4.60072,2470.124,2022-4-02T11:27:29Z
2022-04-02T09:28:55Z,42.805,6.029,13.3027,4.60102,2470.087,2022-4-02T11:30:32Z
2022-04-02T09:31:58Z,42.805,6.029,13.3025,4.60110,2470.077,2022-4-02T11:33:35Z
2022-04-02T09:35:01Z,42.805,6.029,13.3044,4.60108,2470.087,2022-4-02T11:36:38Z
2022-04-02T09:38:04Z,42.805,6.029,13.3036,4.60084,2470.1,2022-4-02T11:39:42Z
2022-04-02T09:41:07Z,42.805,6.029,13.3023,4.60090,2470.1,2022-4-02T11:42:45Z
2022-04-02T09:44:10Z,42.805,6.029,13.3034,4.60102,2470.077,2022-4-02T11:45:48Z
2022-04-02T09:47:14Z,42.805,6.029,13.3028,4.60104,2470.063,2022-4-02T11:48:51Z
2022-04-02T09:50:17Z,42.805,6.029,13.3026,4.60097,2470.063,2022-4-02T11:51:54Z
2022-04-02T09:53:20Z,42.805,6.029,13.3023,4.60065,2470.063,2022-4-02T11:54:57Z
2022-04-02T09:56:23Z,42.805,6.029,13.3026,4.60081,2470.077,2022-4-02T11:58:00Z
2022-04-02T09:59:26Z,42.805,6.029,13.3030,4.60107,2470.077,2022-4-02T12:01:03Z
2022-04-02T10:02:29Z,42.805,6.029,13.3033,4.60117,2470.053,2022-4-02T12:04:07Z
2022-04-02T10:05:32Z,42.805,6.029,13.3034,4.60068,2470.063,2022-4-02T12:07:10Z
2022-04-02T10:08:35Z,42.805,6.029,13.3035,4.60077,2470.063,2022-4-02T12:10:13Z
2022-04-02T10:11:39Z,42.805,6.029,13.3029,4.60096,2470.063,2022-4-02T12:13:16Z
2022-04-02T10:14:42Z,42.805,6.029,13.3034,4.60125,2470.04,2022-4-02T12:16:19Z
2022-04-02T10:17:45Z,42.805,6.029,13.3024,4.60103,2470.077,2022-4-02T12:19:22Z
2022-04-02T10:20:48Z,42.805,6.029,13.3024,4.60104,2470.017,2022-4-02T12:22:25Z
2022-04-02T10:23:51Z,42.805,6.029,13.3032,4.60090,2470.053,2022-4-02T12:25:28Z
2022-04-02T10:26:54Z,42.805,6.029,13.3036,4.60117,2470.04,2022-4-02T12:28:32Z
2022-04-02T10:29:57Z,42.805,6.029,13.3026,4.60125,2470.04,2022-4-02T12:31:35Z
2022-04-02T10:33:00Z,42.805,6.029,13.3036,4.60110,2470.03,2022-4-02T12:34:38Z
2022-04-02T10:36:04Z,42.805,6.029,13.3013,4.60067,2470.017,2022-4-02T12:37:41Z
2022-04-02T10:39:07Z,42.805,6.029,13.3024,4.60079,2470.063,2022-4-02T12:40:44Z
2022-04-02T10:42:10Z,42.805,6.029,13.3028,4.60101,2470.053,2022-4-02T12:43:47Z
2022-04-02T10:45:13Z,42.805,6.029,13.3034,4.60089,2470.017,2022-4-02T12:46:50Z
2022-04-02T10:48:16Z,42.805,6.029,13.3024,4.60092,2470.017,2022-4-02T12:49:53Z
2022-04-02T10:51:19Z,42.805,6.029,13.3024,4.60092,2470.007,2022-4-02T12:52:57Z
2022-04-02T10:54:22Z,42.805,6.029,13.3024,4.60087,2470.017,2022-4-02T12:56:00Z
2022-04-02T10:57:25Z,42.805,6.029,13.3029,4.60106,2470.007,2022-4-02T12:59:03Z
2022-04-02T11:00:29Z,42.805,6.029,13.3039,4.60101,2469.993,2022-4-02T13:02:06Z
2022-04-02T11:03:32Z,42.805,6.029,13.3023,4.60097,2470.007,2022-4-02T13:05:09Z
2022-04-02T11:06:35Z,42.805,6.029,13.3035,4.60104,2470.03,2022-4-02T13:08:12Z
2022-04-02T11:09:38Z,42.805,6.029,13.3034,4.60060,2470.017,2022-4-02T13:11:15Z
2022-04-02T11:12:41Z,42.805,6.029,13.3023,4.60060,2469.984,2022-4-02T13:14:18Z
2022-04-02T11:15:44Z,42.805,6.029,13.3031,4.60103,2469.984,2022-4-02T13:17:21Z
2022-04-02T11:18:47Z,42.805,6.029,13.3035,4.60093,2470.03,2022-4-02T13:20:25Z
2022-04-02T11:21:50Z,42.805,6.029,13.3027,4.60097,2469.96,2022-4-02T13:23:28Z
2022-04-02T11:24:53Z,42.805,6.029,13.3013,4.60117,2469.984,2022-4-02T13:26:31Z
2022-04-02T11:27:57Z,42.805,6.029,13.3021,4.60062,2470.007,2022-4-02T13:29:34Z
2022-04-02T11:31:00Z,42.805,6.029,13.3027,4.60084,2469.984,2022-4-02T13:32:37Z
2022-04-02T11:34:03Z,42.805,6.029,13.3024,4.60099,2469.96,2022-4-02T13:35:40Z
2022-04-02T11:37:06Z,42.805,6.029,13.3024,4.60089,2469.933,2022-4-02T13:38:43Z
2022-04-02T11:40:09Z,42.805,6.029,13.3041,4.60082,2469.947,2022-4-02T13:41:46Z
2022-04-02T11:43:12Z,42.805,6.029,13.3028,4.60062,2469.97,2022-4-02T13:44:50Z
2022-04-02T11:46:15Z,42.805,6.029,13.3034,4.60056,2469.947,2022-4-02T13:47:53Z
2022-04-02T11:49:18Z,42.805,6.029,13.3030,4.60049,2469.947,2022-4-02T13:50:56Z
2022-04-02T11:52:22Z,42.805,6.029,13.3033,4.60062,2470.007,2022-4-02T13:53:59Z
2022-04-02T11:55:25Z,42.805,6.029,13.3041,4.60074,2469.947,2022-4-02T13:57:02Z
2022-04-02T11:58:28Z,42.805,6.029,13.3035,4.60064,2469.984,2022-4-02T14:00:05Z
2022-04-02T12:01:31Z,42.805,6.029,13.3021,4.60083,2469.984,2022-4-02T14:03:08Z
2022-04-02T12:04:34Z,42.805,6.029,13.3024,4.60090,2469.947,2022-4-02T14:06:11Z
2022-04-02T12:07:37Z,42.805,6.029,13.3024,4.60077,2469.984,2022-4-02T14:09:15Z
2022-04-02T12:10:40Z,42.805,6.029,13.3021,4.60094,2469.947,2022-4-02T14:12:18Z
2022-04-02T12:13:43Z,42.805,6.029,13.3041,4.60073,2469.923,2022-4-02T14:15:21Z
2022-04-02T12:16:47Z,42.805,6.029,13.3038,4.60078,2469.96,2022-4-02T14:18:24Z
2022-04-02T12:19:50Z,42.805,6.029,13.3029,4.60074,2469.96,2022-4-02T14:21:27Z
2022-04-02T12:22:53Z,42.805,6.029,13.3022,4.60064,2469.923,2022-4-02T14:24:30Z
2022-04-02T12:25:56Z,42.805,6.029,13.3030,4.60058,2469.914,2022-4-02T14:27:33Z
2022-04-02T12:28:59Z,42.805,6.029,13.3024,4.60069,2469.947,2022-4-02T14:30:36Z
2022-04-02T12:32:02Z,42.805,6.029,13.3029,4.60091,2469.947,2022-4-02T14:33:40Z
2022-04-02T12:35:05Z,42.805,6.029,13.3015,4.60064,2469.923,2022-4-02T14:36:43Z
2022-04-02T12:38:08Z,42.805,6.029,13.3020,4.60067,2469.923,2022-4-02T14:39:46Z
2022-04-02T12:41:12Z,42.805,6.029,13.3021,4.60061,2469.937,2022-4-02T14:42:49Z
2022-04-02T12:44:15Z,42.805,6.029,13.3017,4.60073,2469.937,2022-4-02T14:45:52Z
2022-04-02T12:47:18Z,42.805,6.029,13.3024,4.60044,2469.923,2022-4-02T14:48:55Z
2022-04-02T12:50:21Z,42.805,6.029,13.3024,4.60064,2469.923,2022-4-02T14:51:58Z
2022-04-02T12:53:24Z,42.805,6.029,13.3027,4.60058,2469.9,2022-4-02T14:55:01Z
2022-04-02T12:56:27Z,42.805,6.029,13.3029,4.60045,2469.914,2022-4-02T14:58:05Z
2022-04-02T12:59:30Z,42.805,6.029,13.3020,4.60057,2469.914,2022-4-02T15:01:08Z
2022-04-02T13:02:33Z,42.805,6.029,13.3026,4.60054,2469.937,2022-4-02T15:04:11Z
2022-04-02T13:05:37Z,42.805,6.029,13.3024,4.60052,2469.937,2022-4-02T15:07:14Z
2022-04-02T13:08:40Z,42.805,6.029,13.3019,4.60049,2469.923,2022-4-02T15:10:17Z
2022-04-02T13:11:43Z,42.805,6.029,13.3024,4.60053,2469.9,2022-4-02T15:13:20Z
2022-04-02T13:14:46Z,42.805,6.029,13.3015,4.60062,2469.9,2022-4-02T15:16:23Z
2022-04-02T13:17:49Z,42.805,6.029,13.3010,4.60062,2469.9,2022-4-02T15:19:26Z
2022-04-02T13:20:52Z,42.805,6.029,13.3009,4.60050,2469.9,2022-4-02T15:22:29Z
2022-04-02T13:23:55Z,42.805,6.029,13.3014,4.60062,2469.9,2022-4-02T15:25:33Z
2022-04-02T13:26:58Z,42.805,6.029,13.3014,4.60053,2469.89,2022-4-02T15:28:36Z
2022-04-02T13:30:02Z,42.805,6.029,13.3011,4.60055,2469.89,2022-4-02T15:31:39Z
2022-04-02T13:33:05Z,42.805,6.029,13.3018,4.60064,2469.863,2022-4-02T15:34:42Z
2022-04-02T13:36:08Z,42.805,6.029,13.3026,4.60055,2469.9,2022-4-02T15:37:45Z
2022-04-02T13:39:11Z,42.805,6.029,13.3018,4.60069,2469.914,2022-4-02T15:40:48Z
2022-04-02T13:42:14Z,42.805,6.029,13.3019,4.60057,2469.937,2022-4-02T15:43:51Z
2022-04-02T13:45:17Z,42.805,6.029,13.3019,4.60046,2469.89,2022-4-02T15:46:54Z
2022-04-02T13:48:20Z,42.805,6.029,13.3014,4.60051,2469.853,2022-4-02T15:49:58Z
2022-04-02T13:51:23Z,42.805,6.029,13.3020,4.60058,2469.876,2022-4-02T15:53:01Z
2022-04-02T13:54:26Z,42.805,6.029,13.3017,4.60064,2469.89,2022-4-02T15:56:04Z
2022-04-02T13:57:30Z,42.805,6.029,13.3024,4.60076,2469.876,2022-4-02T15:59:07Z
2022-04-02T14:00:33Z,42.805,6.029,13.3024,4.60049,2469.89,2022-4-02T16:02:10Z
2022-04-02T14:03:36Z,42.805,6.029,13.3019,4.60054,2469.9,2022-4-02T16:05:13Z
2022-04-02T14:06:39Z,42.805,6.029,13.3028,4.60054,2469.876,2022-4-02T16:08:16Z
2022-04-02T14:09:42Z,42.805,6.029,13.3020,4.60057,2469.853,2022-4-02T16:11:19Z
2022-04-02T14:12:45Z,42.805,6.029,13.3022,4.60066,2469.89,2022-4-02T16:14:23Z
2022-04-02T14:15:48Z,42.805,6.029,13.3020,4.60064,2469.876,2022-4-02T16:17:26Z
2022-04-02T14:18:51Z,42.805,6.029,13.3016,4.60068,2469.89,2022-4-02T16:20:29Z
2022-04-02T14:21:55Z,42.805,6.029,13.3030,4.60055,2469.867,2022-4-02T16:23:32Z
2022-04-02T14:24:58Z,42.805,6.029,13.3017,4.60064,2469.89,2022-4-02T16:26:35Z
2022-04-02T14:28:01Z,42.805,6.029,13.3016,4.60054,2469.853,2022-4-02T16:29:38Z
2022-04-02T14:31:04Z,42.805,6.029,13.3019,4.60060,2469.89,2022-4-02T16:32:41Z
2022-04-02T14:34:07Z,42.805,6.029,13.3019,4.60047,2469.914,2022-4-02T16:35:44Z
2022-04-02T14:37:10Z,42.805,6.029,13.3021,4.60056,2469.867,2022-4-02T16:38:48Z
2022-04-02T14:40:13Z,42.805,6.029,13.3024,4.60065,2469.867,2022-4-02T16:41:51Z
2022-04-02T14:43:16Z,42.805,6.029,13.3018,4.60049,2469.853,2022-4-02T16:44:54Z
2022-04-02T14:46:20Z,42.805,6.029,13.3019,4.60054,2469.876,2022-4-02T16:47:57Z
2022-04-02T14:49:23Z,42.805,6.029,13.3015,4.60064,2469.89,2022-4-02T16:51:00Z
2022-04-02T14:52:26Z,42.805,6.029,13.3021,4.60059,2469.853,2022-4-02T16:54:03Z
2022-04-02T14:55:29Z,42.805,6.029,13.3014,4.60061,2469.844,2022-4-02T16:57:06Z
2022-04-02T14:58:32Z,42.805,6.029,13.3015,4.60051,2469.867,2022-4-02T17:00:09Z
2022-04-02T15:01:35Z,42.805,6.029,13.3011,4.60049,2469.89,2022-4-02T17:03:12Z
2022-04-02T15:04:38Z,42.805,6.029,13.3012,4.60059,2469.853,2022-4-02T17:06:16Z
2022-04-02T15:07:41Z,42.805,6.029,13.3021,4.60059,2469.853,2022-4-02T17:09:19Z
2022-04-02T15:10:44Z,42.805,6.029,13.3016,4.60052,2469.89,2022-4-02T17:12:22Z
2022-04-02T15:13:48Z,42.805,6.029,13.3013,4.60057,2469.914,2022-4-02T17:15:25Z